Location: *
(51.4660°N, 0.3360°W)
Time: 21:07:26
(UTC+00:00)

MetOp-B - Pass Details

Date: 19 September 2019
Orbit: 819 x 821 km, 98.7° (Epoch: 20 October)

Event Time Altitude Azimuth Distance (km) Brightness Sun altitude
Exits shadow 20:32:56 48° 142° (SE) 1,060 4.3 -22.2°
Maximum altitude 20:34:24 75° 71° (ENE) 855 4.0 -22.4°
Drops below altitude 10° 20:39:46 10° 347° (NNW) 2,429 7.2 -23.1°
Sets 20:42:08 0° 346° (NNW) 3,366 8.1 -23.4°
